Elmira, NY

3:47 AM EST on December 06, 2019 (GMT -0500)
Elmira-Corning Regional

Weather History for KELM - October, 2019

Change the Weather History Date:

Thursday, October 17, 2019

  Actual Average Record
Temperature  
Mean Temperature 46 °F -  
Max Temperature 48 °F 60 °F 85 °F (1947)
Min Temperature 45 °F 38 °F 24 °F (1937)
Degree Days  
Heating Degree Days 18    
Moisture  
Dew Point 42 °F    
Average Humidity 84    
Maximum Humidity 97    
Minimum Humidity 76    
Precipitation  
Precipitation 0.14 in - - ()
Sea Level Pressure  
Sea Level Pressure 29.49 in    
Wind  
Wind Speed 9 mph (West)    
Max Wind Speed 22 mph    
Max Gust Speed 33 mph    
Visibility 9 miles    
Events Rain    
Averages and records for this station are not official NWS values.
T = Trace of Precipitation, MM = Missing Value Source: NWS Daily Summary

Daily Weather History Graph

Daily Weather History Graph

Search for Another Location

Airport or City:

Astronomy

Oct. 17, 2019 Rise Set
Actual Time 7:22 AM EDT 6:22 PM EDT
Civil Twilight 6:53 AM EDT 6:51 PM EDT
Nautical Twilight 6:21 AM EDT 7:23 PM EDT
Astronomical Twilight 5:49 AM EDT 7:56 PM EDT
Moon 8:49 PM EDT (10/17) 10:55 AM EDT (10/17)
Length of Visible Light 11h 57m
Length of Day
11h 00m
Waning Gibbous, 87% of the Moon is Illuminated
Oct 17
Waning Gibbous
Oct 21
Last Quarter
Oct 27
New
Nov 4
First Quarter
Nov 12
Full

Hourly Weather History & Observations

Time (EDT) Temp. Windchill Dew Point Humidity Pressure Visibility Wind Dir Wind Speed Gust Speed Precip Events Conditions
12:53 AM 45.0 °F 43.5 °F 43.0 °F 93% 29.43 in 10.0 mi WSW 3.5 mph - N/A   Overcast
1:01 AM 46.0 °F 43.9 °F 44.1 °F 93% 29.43 in 10.0 mi SW 4.6 mph - N/A   Overcast
1:30 AM 46.0 °F 44.8 °F 44.1 °F 93% 29.42 in 10.0 mi West 3.5 mph - 0.01 in Rain Light Rain
1:42 AM 45.0 °F - 44.1 °F 97% 29.42 in 9.0 mi Calm Calm - 0.01 in Rain Light Rain
1:53 AM 46.0 °F 43.1 °F 43.0 °F 89% 29.42 in 10.0 mi WSW 5.8 mph - 0.01 in Rain Light Rain
2:39 AM 46.0 °F 43.9 °F 44.1 °F 93% 29.40 in 9.0 mi West 4.6 mph - 0.01 in Rain Light Rain
2:53 AM 46.0 °F - 45.0 °F 96% 29.40 in 4.0 mi Calm Calm - 0.03 in Rain Rain
3:14 AM 46.9 °F - 43.0 °F 86% 29.39 in 8.0 mi West 10.4 mph - 0.02 in Rain Light Rain
3:53 AM 46.9 °F - 43.0 °F 86% 29.38 in 10.0 mi West 12.7 mph - 0.02 in   Overcast
4:53 AM 46.0 °F 41.0 °F 42.1 °F 86% 29.37 in 10.0 mi WSW 10.4 mph - 0.00 in Rain Light Rain
5:40 AM 45.0 °F 39.7 °F 43.0 °F 93% 29.37 in 6.0 mi WSW 10.4 mph - 0.02 in Rain Light Rain
5:53 AM 46.0 °F 41.4 °F 43.0 °F 89% 29.38 in 10.0 mi WSW 9.2 mph - 0.03 in Rain Light Rain
6:19 AM 46.0 °F 41.9 °F 42.1 °F 86% 29.37 in 10.0 mi West 8.1 mph - 0.00 in   Overcast
6:38 AM 46.9 °F - 42.1 °F 83% 29.36 in 10.0 mi WSW 10.4 mph - 0.00 in Rain Light Rain
6:53 AM 46.9 °F - 42.1 °F 83% 29.37 in 10.0 mi West 10.4 mph - 0.00 in   Overcast
7:53 AM 46.0 °F 38.8 °F 42.1 °F 86% 29.37 in 7.0 mi West 18.4 mph 27.6 mph 0.01 in Rain Light Rain
8:00 AM 46.0 °F 38.8 °F 42.1 °F 86% 29.36 in 8.0 mi West 18.4 mph 27.6 mph 0.00 in Rain Light Rain
8:53 AM 46.9 °F - 42.1 °F 83% 29.37 in 10.0 mi West 18.4 mph 27.6 mph 0.01 in Rain Light Rain
9:53 AM 48.0 °F - 42.1 °F 80% 29.38 in 10.0 mi West 21.9 mph 31.1 mph 0.00 in Rain Light Rain
10:53 AM 48.0 °F - 42.1 °F 80% 29.41 in 10.0 mi West 17.3 mph 33.4 mph 0.01 in   Overcast
11:50 AM 48.2 °F - 42.8 °F 82% 29.44 in 8.0 mi West 11.5 mph 27.6 mph 0.01 in Rain Light Rain
11:53 AM 48.0 °F - 42.1 °F 80% 29.45 in 9.0 mi West 15.0 mph 21.9 mph 0.01 in Rain Light Rain
12:53 PM 48.9 °F - 43.0 °F 80% 29.47 in 10.0 mi West 18.4 mph 32.2 mph 0.01 in Rain Light Rain
1:53 PM 48.9 °F - 43.0 °F 80% 29.50 in 10.0 mi WNW 12.7 mph 28.8 mph 0.00 in Rain Light Rain
2:27 PM 48.0 °F - 42.1 °F 80% 29.50 in 10.0 mi WNW 10.4 mph 21.9 mph 0.00 in Rain Light Rain
2:53 PM 48.0 °F - 44.1 °F 86% 29.52 in 10.0 mi WNW 10.4 mph 20.7 mph 0.00 in Rain Light Rain
3:53 PM 48.9 °F - 42.1 °F 77% 29.55 in 10.0 mi WNW 15.0 mph 25.3 mph 0.00 in   Overcast
4:53 PM 48.0 °F - 41.0 °F 77% 29.58 in 10.0 mi WNW 16.1 mph 26.5 mph N/A   Overcast
5:53 PM 48.0 °F - 41.0 °F 77% 29.61 in 10.0 mi WNW 18.4 mph 23.0 mph N/A   Overcast
6:53 PM 46.9 °F - 41.0 °F 80% 29.63 in 10.0 mi WNW 17.3 mph 27.6 mph 0.00 in Rain Light Rain
7:53 PM 46.9 °F - 41.0 °F 80% 29.66 in 10.0 mi West 9.2 mph 21.9 mph 0.00 in   Overcast
8:53 PM 46.9 °F - 41.0 °F 80% 29.69 in 10.0 mi West 10.4 mph 21.9 mph N/A   Overcast
9:53 PM 46.9 °F - 39.9 °F 77% 29.72 in 10.0 mi WNW 15.0 mph 29.9 mph N/A   Overcast
10:53 PM 46.0 °F 41.0 °F 39.9 °F 79% 29.74 in 10.0 mi West 10.4 mph 20.7 mph N/A   Overcast
11:42 PM 46.0 °F 38.8 °F 39.0 °F 76% 29.73 in 10.0 mi WNW 18.4 mph 26.5 mph N/A   Overcast
11:49 PM 46.4 °F 40.4 °F 39.2 °F 76% 29.73 in 10.0 mi WNW 13.8 mph 24.2 mph N/A   Overcast
11:53 PM 46.0 °F 38.5 °F 39.0 °F 76% 29.74 in 10.0 mi WNW 19.6 mph 27.6 mph N/A   Overcast